Miscellaneous Local Product
Issued by NWS North Platte, NE

Home | Current Version | Previous Version | Graphics & Text | Print | Product List | Glossary On
Versions: 1 2 3 4 5 6 7 8 9 10 11 12 13 14 15 16 17 18 19 20 21 22 23 24 25 26 27 28 29 30 31 32 33 34 35 36 37 38 39 40 41 42 43 44 45 46 47 48 49 50
000
AXUS43 KLBF 300410
MISLBF


WESTERN AND NORTH CENTRAL NEBRASKA HOURLY WEATHER ROUNDUP
NATIONAL WEATHER SERVICE NORTH PLATTE NE
1100 PM CDT MON JUN 29 2015

***STATIONS NOT REPORTING VARIABLES SUCH AS SKY/WEATHER OR
PRESSURE ARE PROVIDED BY THE NEBRASKA DEPARTMENT OF
ROADS...RAWS...AND APRS NETWORKS...AND ARE NOT UNDER
NATIONAL WEATHER SERVICE QUALITY CONTROL***

...OBSERVATIONS IN AND NEAR THE EASTERN PANHANDLE OF NEBRASKA...

CITY           SKY/WX    TMP DP  RH WIND       PRES   REMARKS
PINE RIDGE     CLEAR     66  60  81 CALM      30.06R
CHADRON        CLEAR     66  60  81 W6        30.06R
ALLIANCE       CLEAR     66  59  78 CALM      30.10R
SIDNEY         CLEAR     63  60  90 SW8       30.15R
WHITECLAY        N/A     67  60  80 SE5         N/A
CRESCENT LAKE    N/A     73  56  56 CALM        N/A
$$

...OBSERVATIONS IN NORTH CENTRAL NEBRASKA...

CITY           SKY/WX    TMP DP  RH WIND       PRES   REMARKS
VALENTINE      CLEAR     71  62  73 CALM      30.01R
THEDFORD       CLEAR     73  63  69 CALM      30.05R
AINSWORTH      CLEAR     73  64  73 CALM      30.02R
O`NEILL        CLEAR     72  63  73 S6        29.98R
ORD            CLEAR     66  62  87 CALM      29.98R
BROKEN BOW     CLEAR     69  61  75 CALM      30.02R
SPRINGVIEW       N/A     67  60  79 CALM        N/A
HALSEY           N/A     76  56  49 CALM        N/A
BREWSTER         N/A     74  64  71 CALM        N/A
ROSE             N/A     88  73  59 N7          N/A  HX  95
NEWPORT          N/A     66  64  91 SW3         N/A
SARGENT          N/A     71  64  78 CALM        N/A
CHAMBERS         N/A     71  63  75 S3          N/A
EWING            N/A     69  64  85 CALM        N/A
$$

...OBSERVATIONS IN SOUTHWEST NEBRASKA AND FAR NORTHEAST COLORADO...

CITY           SKY/WX    TMP DP  RH WIND       PRES   REMARKS
WRAY           FAIR      74  56  52 CALM      30.10R
HOLYOKE        FAIR      72  61  68 SE7       30.11R
IMPERIAL       CLEAR     74  58  57 CALM      30.07R
OGALLALA       CLEAR     67  60  77 CALM      30.07R
NORTH PLATTE   CLEAR     70  63  78 E5        30.04R
MCCOOK         CLEAR     77  59  53 MISG      30.02R
LEXINGTON      CLEAR     72  63  72 S3        30.02R
PAXTON           N/A     72  62  71 CALM        N/A
GOTHENBURG       N/A     75  60  58 CALM        N/A
CALLAWAY         N/A     67  61  80 CALM        N/A
$$

...NORTH PLATTE AREA...

CITY           SKY/WX    TMP DP  RH WIND       PRES   REMARKS
AIRPORT        CLEAR     70  63  78 E5        30.04R
DOWNTOWN         N/A     78  63  60 CALM        N/A
HILLCREST        N/A     73  60  65 E7          N/A
$$

...SOME WEATHER OBSERVATIONS FROM AROUND THE REGION...

CITY           SKY/WX    TMP DP  RH WIND       PRES   REMARKS
DENVER         PTCLDY    68  53  58 SE7       30.23R
LARAMIE        CLEAR     63  42  46 E7        30.36R
CHEYENNE       CLEAR     69  46  43 W3        30.27R
SCOTTSBLUFF    CLEAR     73  56  54 S5        30.12R
RAPID CITY     CLEAR     70  61  73 CALM      30.03R
PIERRE         PTCLDY    72  62  71 E6        29.91R
WINNER         FAIR      78  55  44 SW6       29.96R
SIOUX FALLS    PTCLDY    72  62  71 W5        29.91R
OMAHA          CLOUDY    73  66  78 CALM      29.92R
GRAND ISLAND   CLEAR     71  63  75 SE6       29.99R
KANSAS CITY    MOCLDY    77  63  61 W3        29.93R
WICHITA        PTCLDY    75  61  61 S5        29.98R
HAYS           PTCLDY    81  54  39 N5        30.01R
LIBERAL        CLEAR     72  59  64 S6          N/A
GOODLAND       CLEAR     74  54  49 SW9       30.10R
$$



USA.gov is the U.S. government's official web portal to all federal, state and local government web resources and services.